Location: Bukovany
(49.8234°N, 14.6297°E)
Time: 01:35:44
(UTC+00:00)

Sich 1 Rocket - Pass Details

Date: 17 November 2025
Orbit: 611 x 646 km, 82.5° (Epoch: 13 December)

Event Time Altitude Azimuth Distance (km) Brightness Sun altitude
Rises 17:46:15 0° 191° (S) 2,939 7.2 -24.1°
Reaches altitude 10° 17:48:29 10° 192° (SSW) 2,038 6.3 -24.4°
Maximum altitude 17:53:01 81° 279° (W) 662 3.6 -25.2°
Enters shadow 17:53:31 69° 344° (NNW) 695 3.7 -25.2°
